Tracking 27086 objects as of 22-Mar-2023
HD Live streaming from Space Station
objects crossing your sky now

STARLINK-2496

Track STARLINK-2496 now!
10-day predictions
STARLINK-2496 is classified as:


NORAD ID: 48486
Int'l Code: 2021-040BL
Perigee: 553.7 km
Apogee: 555.1 km
Inclination: 53.1 °
Period: 95.6 minutes
Semi major axis: 6925 km
RCS: Unknown
Launch date: May 9, 2021
Source: United States (US)
Launch site: AIR FORCE EASTERN TEST RANGE (AFETR)
Your satellite tracking list
Your tracking list is empty




NASA's NSSDC Master Catalog

Two Line Element Set (TLE):
1 48486U 21040BL  23081.18577607  .00023498  00000-0  15921-2 0  9998
2 48486  53.0547  25.6433 0001038  85.2079 274.9028 15.06377994104314
Source of the keplerian elements: AFSPC